SPKEA EPKI-EPOD

Flight info

Callsign SPKEA
Flight time 0h 50m
Altitude 3500
Route DCT 535733N0205903E 5352N02118E 534803N0213419E 533746N0214835E/N0120A025 534034N0211551E 534816N0205100E DCT TUROL DCT EPODN/N0095A015 DCT
Aircraft C172/L-SBDGR/C

Departure

Time 2026-05-05 16:45
Airport Kikity (EPKI)

Arrival

Time 2026-05-05 17:35
Airport Olsztyn-Dajtki Airfield (EPOD)
Time Latitude Longitude Altitude Speed Heading
2026-05-05 16:28 53.98202 20.88288 578 ft 0 kts 251°
2026-05-05 16:41 53.98189 20.88263 578 ft 3 kts 205°
2026-05-05 16:41 53.98175 20.88254 578 ft 0 kts 204°
2026-05-05 16:41 53.98170 20.88249 578 ft 5 kts 204°
2026-05-05 16:41 53.98164 20.88189 578 ft 8 kts 292°
2026-05-05 16:42 53.98190 20.88071 578 ft 16 kts 293°
2026-05-05 16:42 53.98239 20.87858 578 ft 20 kts 292°
2026-05-05 16:42 53.98292 20.87644 578 ft 19 kts 291°
2026-05-05 16:42 53.98336 20.87446 578 ft 17 kts 295°
2026-05-05 16:43 53.98379 20.87264 578 ft 13 kts 292°
2026-05-05 16:43 53.98410 20.87153 578 ft 5 kts 251°
2026-05-05 16:43 53.98400 20.87170 578 ft 2 kts 107°
2026-05-05 16:43 53.98399 20.87173 578 ft 0 kts 108°
2026-05-05 16:44 53.98378 20.87264 578 ft 25 kts 110°
2026-05-05 16:44 53.98254 20.87771 586 ft 65 kts 109°
2026-05-05 16:44 53.98061 20.88489 774 ft 66 kts 101°
2026-05-05 16:44 53.97918 20.89221 959 ft 65 kts 93°
2026-05-05 16:45 53.97792 20.89992 1102 ft 76 kts 91°
2026-05-05 16:45 53.97673 20.90913 1241 ft 84 kts 93°
2026-05-05 16:45 53.97542 20.91928 1371 ft 90 kts 94°
2026-05-05 16:45 53.97347 20.92966 1494 ft 95 kts 103°
2026-05-05 16:46 53.97050 20.94005 1617 ft 98 kts 109°
2026-05-05 16:46 53.96672 20.95008 1736 ft 102 kts 119°
2026-05-05 16:46 53.96238 20.95958 1857 ft 100 kts 112°
2026-05-05 16:46 53.95924 20.97003 1992 ft 99 kts 105°
2026-05-05 16:47 53.95777 20.98120 2123 ft 96 kts 91°
2026-05-05 16:47 53.95617 20.99233 2244 ft 99 kts 104°
2026-05-05 16:47 53.95350 21.00325 2367 ft 101 kts 108°
2026-05-05 16:47 53.95054 21.01400 2493 ft 102 kts 109°
2026-05-05 16:48 53.94687 21.02456 2616 ft 103 kts 116°
2026-05-05 16:48 53.94368 21.03535 2738 ft 102 kts 109°
2026-05-05 16:48 53.94134 21.04664 2867 ft 101 kts 99°
2026-05-05 16:48 53.93980 21.05841 2998 ft 102 kts 98°
2026-05-05 16:49 53.93718 21.06963 3122 ft 104 kts 118°
2026-05-05 16:49 53.93366 21.08032 3247 ft 104 kts 116°
2026-05-05 16:49 53.93023 21.09122 3373 ft 105 kts 118°
2026-05-05 16:49 53.92603 21.10154 3477 ft 108 kts 126°
2026-05-05 16:50 53.92175 21.11256 3498 ft 115 kts 115°
2026-05-05 16:50 53.91822 21.12520 3499 ft 120 kts 117°
2026-05-05 16:50 53.91380 21.13742 3496 ft 124 kts 122°
2026-05-05 16:50 53.90915 21.14983 3495 ft 125 kts 122°
2026-05-05 16:51 53.90454 21.16221 3493 ft 125 kts 122°
2026-05-05 16:51 53.89991 21.17472 3493 ft 125 kts 122°
2026-05-05 16:51 53.89529 21.18723 3489 ft 125 kts 122°
2026-05-05 16:51 53.89062 21.19977 3490 ft 125 kts 122°
2026-05-05 16:52 53.88593 21.21232 3488 ft 125 kts 122°
2026-05-05 16:52 53.88121 21.22483 3491 ft 125 kts 122°
2026-05-05 16:52 53.87698 21.23778 3493 ft 125 kts 116°
2026-05-05 16:52 53.87300 21.25101 3489 ft 126 kts 116°
2026-05-05 16:53 53.86930 21.26444 3492 ft 125 kts 112°
2026-05-05 16:53 53.86586 21.27803 3493 ft 126 kts 111°
2026-05-05 16:53 53.86239 21.29173 3491 ft 126 kts 112°
2026-05-05 16:53 53.85892 21.30534 3491 ft 125 kts 111°
2026-05-05 16:54 53.85547 21.31884 3493 ft 125 kts 111°
2026-05-05 16:54 53.85202 21.33224 3496 ft 125 kts 111°
2026-05-05 16:54 53.84849 21.34569 3499 ft 124 kts 105°
2026-05-05 16:54 53.84716 21.36018 3496 ft 124 kts 95°
2026-05-05 16:55 53.84558 21.37441 3493 ft 124 kts 101°
2026-05-05 16:55 53.84273 21.38819 3495 ft 125 kts 112°
2026-05-05 16:55 53.83921 21.40173 3493 ft 125 kts 112°
2026-05-05 16:55 53.83617 21.41552 3491 ft 125 kts 108°
2026-05-05 16:56 53.83309 21.42931 3487 ft 125 kts 111°
2026-05-05 16:56 53.82960 21.44309 3489 ft 126 kts 111°
2026-05-05 16:56 53.82619 21.45645 3489 ft 126 kts 111°
2026-05-05 16:56 53.82268 21.47018 3489 ft 125 kts 111°
2026-05-05 16:57 53.81926 21.48357 3487 ft 125 kts 111°
2026-05-05 16:57 53.81493 21.49651 3480 ft 125 kts 123°
2026-05-05 16:57 53.81024 21.50887 3476 ft 125 kts 120°
2026-05-05 16:57 53.80570 21.52148 3476 ft 125 kts 120°
2026-05-05 16:58 53.80142 21.53420 3477 ft 124 kts 109°
2026-05-05 16:58 53.79974 21.54832 3482 ft 123 kts 96°
2026-05-05 16:58 53.79885 21.56281 3482 ft 123 kts 92°
2026-05-05 16:58 53.79827 21.57728 3482 ft 124 kts 92°
2026-05-05 16:59 53.79506 21.59093 3486 ft 124 kts 122°
2026-05-05 16:59 53.79120 21.60402 3489 ft 124 kts 107°
2026-05-05 16:59 53.78892 21.61813 3491 ft 124 kts 100°
2026-05-05 16:59 53.78703 21.63235 3492 ft 124 kts 100°
2026-05-05 17:00 53.78579 21.64674 3489 ft 124 kts 91°
2026-05-05 17:00 53.78601 21.66129 3486 ft 123 kts 81°
2026-05-05 17:00 53.78707 21.67562 3486 ft 123 kts 88°
2026-05-05 17:00 53.78537 21.68989 3488 ft 124 kts 105°
2026-05-05 17:01 53.78202 21.70336 3487 ft 124 kts 113°
2026-05-05 17:01 53.77733 21.71550 3485 ft 125 kts 130°
2026-05-05 17:01 53.77083 21.72545 3479 ft 125 kts 143°
2026-05-05 17:01 53.76302 21.73141 3477 ft 125 kts 165°
2026-05-05 17:02 53.75450 21.73470 3482 ft 125 kts 168°
2026-05-05 17:02 53.74602 21.73771 3488 ft 125 kts 168°
2026-05-05 17:02 53.73771 21.74227 3493 ft 125 kts 151°
2026-05-05 17:02 53.73019 21.74968 3491 ft 125 kts 148°
2026-05-05 17:03 53.72245 21.75671 3490 ft 126 kts 155°
2026-05-05 17:03 53.71468 21.76332 3486 ft 126 kts 152°
2026-05-05 17:03 53.70681 21.77022 3485 ft 126 kts 152°
2026-05-05 17:03 53.69906 21.77701 3484 ft 126 kts 152°
2026-05-05 17:04 53.69121 21.78385 3487 ft 126 kts 152°
2026-05-05 17:04 53.68341 21.79058 3485 ft 126 kts 152°
2026-05-05 17:04 53.67556 21.79735 3489 ft 126 kts 152°
2026-05-05 17:04 53.66785 21.80400 3492 ft 125 kts 152°
2026-05-05 17:05 53.66002 21.81081 3495 ft 125 kts 152°
2026-05-05 17:05 53.65182 21.81510 3494 ft 124 kts 180°
2026-05-05 17:05 53.64320 21.81439 3490 ft 125 kts 185°
2026-05-05 17:05 53.63540 21.80901 3411 ft 124 kts 225°
2026-05-05 17:06 53.63106 21.79647 3215 ft 127 kts 250°
2026-05-05 17:06 53.62794 21.78240 3014 ft 129 kts 257°
2026-05-05 17:06 53.62770 21.76749 2812 ft 129 kts 277°
2026-05-05 17:06 53.62839 21.75233 2615 ft 131 kts 278°
2026-05-05 17:07 53.62956 21.73717 2496 ft 125 kts 285°
2026-05-05 17:07 53.63127 21.72319 2483 ft 118 kts 287°
2026-05-05 17:07 53.63310 21.70992 2484 ft 117 kts 287°
2026-05-05 17:07 53.63467 21.69616 2485 ft 123 kts 285°
2026-05-05 17:08 53.63617 21.68183 2487 ft 125 kts 283°
2026-05-05 17:08 53.63790 21.66747 2485 ft 126 kts 287°
2026-05-05 17:08 53.63969 21.65279 2481 ft 127 kts 282°
2026-05-05 17:08 53.64082 21.63813 2478 ft 127 kts 284°
2026-05-05 17:09 53.64255 21.62355 2476 ft 126 kts 286°
2026-05-05 17:09 53.64432 21.60913 2476 ft 126 kts 285°
2026-05-05 17:09 53.64577 21.59453 2469 ft 126 kts 283°
2026-05-05 17:09 53.64714 21.57999 2465 ft 126 kts 283°
2026-05-05 17:10 53.64849 21.56535 2466 ft 126 kts 281°
2026-05-05 17:10 53.64921 21.55054 2469 ft 127 kts 278°
2026-05-05 17:10 53.64985 21.53555 2468 ft 128 kts 278°
2026-05-05 17:10 53.65047 21.52064 2469 ft 128 kts 278°
2026-05-05 17:11 53.65118 21.50575 2467 ft 128 kts 281°
2026-05-05 17:11 53.65262 21.49108 2468 ft 128 kts 284°
2026-05-05 17:11 53.65431 21.47621 2474 ft 127 kts 286°
2026-05-05 17:11 53.65591 21.46154 2476 ft 128 kts 284°
2026-05-05 17:12 53.65741 21.44688 2474 ft 128 kts 284°
2026-05-05 17:12 53.65890 21.43201 2475 ft 128 kts 284°
2026-05-05 17:12 53.66049 21.41708 2479 ft 128 kts 286°
2026-05-05 17:12 53.66225 21.40254 2475 ft 127 kts 286°
2026-05-05 17:13 53.66383 21.38791 2488 ft 128 kts 281°
2026-05-05 17:13 53.66461 21.37296 2489 ft 128 kts 279°
2026-05-05 17:13 53.66534 21.35804 2482 ft 128 kts 279°
2026-05-05 17:13 53.66610 21.34298 2474 ft 129 kts 278°
2026-05-05 17:14 53.66684 21.32786 2475 ft 129 kts 278°
2026-05-05 17:14 53.66758 21.31283 2472 ft 128 kts 278°
2026-05-05 17:14 53.66830 21.29799 2472 ft 127 kts 278°
2026-05-05 17:14 53.66917 21.28318 2476 ft 126 kts 287°
2026-05-05 17:15 53.67285 21.26999 2475 ft 124 kts 304°
2026-05-05 17:15 53.67716 21.25738 2477 ft 123 kts 305°
2026-05-05 17:15 53.68127 21.24457 2469 ft 124 kts 302°
2026-05-05 17:15 53.68521 21.23193 2479 ft 123 kts 302°
2026-05-05 17:16 53.68955 21.21930 2488 ft 123 kts 305°
2026-05-05 17:16 53.69369 21.20658 2483 ft 125 kts 299°
2026-05-05 17:16 53.69720 21.19330 2485 ft 125 kts 298°
2026-05-05 17:16 53.70082 21.17970 2484 ft 125 kts 301°
2026-05-05 17:17 53.70503 21.16684 2488 ft 125 kts 303°
2026-05-05 17:17 53.70922 21.15407 2487 ft 125 kts 303°
2026-05-05 17:17 53.71337 21.14120 2475 ft 124 kts 303°
2026-05-05 17:17 53.71750 21.12828 2486 ft 124 kts 303°
2026-05-05 17:18 53.72158 21.11553 2483 ft 124 kts 303°
2026-05-05 17:18 53.72569 21.10268 2481 ft 124 kts 303°
2026-05-05 17:18 53.72971 21.08978 2473 ft 124 kts 300°
2026-05-05 17:18 53.73333 21.07657 2478 ft 125 kts 299°
2026-05-05 17:19 53.73691 21.06336 2479 ft 124 kts 299°
2026-05-05 17:19 53.74053 21.05005 2476 ft 125 kts 299°
2026-05-05 17:19 53.74439 21.03705 2485 ft 123 kts 303°
2026-05-05 17:19 53.74847 21.02432 2488 ft 122 kts 303°
2026-05-05 17:20 53.75252 21.01175 2498 ft 123 kts 303°
2026-05-05 17:20 53.75658 20.99914 2501 ft 123 kts 303°
2026-05-05 17:20 53.76070 20.98631 2493 ft 124 kts 303°
2026-05-05 17:20 53.76483 20.97366 2497 ft 124 kts 304°
2026-05-05 17:21 53.76908 20.96092 2518 ft 124 kts 304°
2026-05-05 17:21 53.77335 20.94813 2517 ft 125 kts 304°
2026-05-05 17:21 53.77759 20.93532 2519 ft 126 kts 304°
2026-05-05 17:22 53.78612 20.90937 2523 ft 125 kts 304°
2026-05-05 17:22 53.79031 20.89657 2530 ft 125 kts 302°
2026-05-05 17:22 53.79400 20.88319 2530 ft 125 kts 300°
2026-05-05 17:22 53.79812 20.87014 2529 ft 125 kts 303°
2026-05-05 17:23 53.80186 20.85686 2522 ft 126 kts 299°
2026-05-05 17:23 53.80549 20.84348 2508 ft 124 kts 299°
2026-05-05 17:23 53.80909 20.83017 2519 ft 124 kts 299°
2026-05-05 17:23 53.81268 20.81674 2528 ft 126 kts 296°
2026-05-05 17:24 53.81416 20.80175 2520 ft 130 kts 282°
2026-05-05 17:24 53.81575 20.78684 2527 ft 130 kts 285°
2026-05-05 17:24 53.81741 20.77193 2531 ft 129 kts 285°
2026-05-05 17:24 53.81905 20.75698 2515 ft 129 kts 285°
2026-05-05 17:25 53.82070 20.74196 2517 ft 129 kts 285°
2026-05-05 17:25 53.82208 20.73219 2513 ft 128 kts 290°
2026-05-05 17:25 53.82517 20.71273 2515 ft 128 kts 290°
2026-05-05 17:25 53.82751 20.69811 2507 ft 128 kts 290°
2026-05-05 17:26 53.82984 20.68340 2506 ft 129 kts 289°
2026-05-05 17:26 53.83191 20.66885 2514 ft 129 kts 288°
2026-05-05 17:26 53.83413 20.65419 2511 ft 128 kts 290°
2026-05-05 17:26 53.83647 20.63958 2513 ft 128 kts 290°
2026-05-05 17:27 53.83885 20.62490 2510 ft 128 kts 290°
2026-05-05 17:27 53.84121 20.61039 2508 ft 128 kts 290°
2026-05-05 17:27 53.84353 20.59588 2504 ft 127 kts 290°
2026-05-05 17:27 53.84586 20.58129 2517 ft 127 kts 290°
2026-05-05 17:28 53.84816 20.56680 2516 ft 127 kts 290°
2026-05-05 17:28 53.85051 20.55254 2519 ft 127 kts 291°
2026-05-05 17:28 53.85277 20.53798 2519 ft 127 kts 288°
2026-05-05 17:28 53.85472 20.52333 2516 ft 128 kts 286°
2026-05-05 17:29 53.85651 20.50861 2521 ft 127 kts 289°
2026-05-05 17:29 53.85873 20.49423 2516 ft 123 kts 297°
2026-05-05 17:29 53.85876 20.48054 2516 ft 120 kts 251°
2026-05-05 17:29 53.85369 20.47057 2500 ft 104 kts 210°
2026-05-05 17:30 53.84725 20.46689 2500 ft 94 kts 174°
2026-05-05 17:30 53.84102 20.46978 2511 ft 95 kts 150°
2026-05-05 17:30 53.83496 20.47407 2500 ft 90 kts 164°
2026-05-05 17:30 53.82895 20.47260 2418 ft 91 kts 193°
2026-05-05 17:31 53.82268 20.46904 2200 ft 97 kts 196°
2026-05-05 17:31 53.81629 20.46511 1950 ft 101 kts 197°
2026-05-05 17:31 53.80939 20.46079 1695 ft 109 kts 196°
2026-05-05 17:31 53.80217 20.45663 1545 ft 111 kts 193°
2026-05-05 17:32 53.79538 20.45079 1535 ft 112 kts 225°
2026-05-05 17:32 53.79306 20.43926 1556 ft 104 kts 276°
2026-05-05 17:32 53.79343 20.42709 1578 ft 104 kts 283°
2026-05-05 17:32 53.79420 20.41459 1548 ft 107 kts 282°
2026-05-05 17:33 53.79477 20.40199 1489 ft 110 kts 282°
2026-05-05 17:33 53.79543 20.38909 1441 ft 109 kts 282°
2026-05-05 17:33 53.79544 20.37635 1423 ft 111 kts 261°
2026-05-05 17:33 53.79131 20.36681 1379 ft 97 kts 208°
2026-05-05 17:34 53.78502 20.36452 1282 ft 89 kts 170°
2026-05-05 17:34 53.77986 20.36847 1200 ft 79 kts 127°
2026-05-05 17:34 53.77652 20.37573 1152 ft 79 kts 108°
2026-05-05 17:34 53.77501 20.38452 1046 ft 79 kts 90°
2026-05-05 17:35 53.77478 20.39418 851 ft 85 kts 88°
2026-05-05 17:35 53.77430 20.40382 581 ft 81 kts 86°
2026-05-05 17:35 53.77393 20.41265 436 ft 62 kts 92°
2026-05-05 17:35 53.77372 20.41706 432 ft 21 kts 93°
2026-05-05 17:36 53.77363 20.41923 428 ft 12 kts 88°
2026-05-05 17:36 53.77397 20.41976 430 ft 0 kts 355°
2026-05-05 17:36 53.77400 20.41975 430 ft 3 kts 346°
2026-05-05 17:36 53.77468 20.41918 433 ft 13 kts 334°
2026-05-05 17:37 53.77532 20.41860 434 ft 4 kts 264°
2026-05-05 17:37 53.77514 20.41799 434 ft 5 kts 202°
2026-05-05 17:37 53.77511 20.41799 434 ft 0 kts 160°